MHY NZWN-YMHB

Flight info

Callsign MHY
Flight time N/A
Altitude 40000
Route UPLUD2PVANDA/34 VANDA DCT KABIN M643 PECOB DCT IPLET
Aircraft B738/M-SDE2E3FGHIRWXY/LB1

Departure

Time N/A
Airport Wellington International Airport (NZWN)

Arrival

Time 2026-05-09 10:08
Airport Hobart International Airport (YMHB)
Time Latitude Longitude Altitude Speed Heading
2026-05-09 07:18 -41.89613 172.46449 39615 ft 430 kts 243°
2026-05-09 07:18 -41.92109 172.39200 39675 ft 432 kts 243°
2026-05-09 07:19 -41.94603 172.31931 39630 ft 428 kts 243°
2026-05-09 07:19 -41.97101 172.24628 39650 ft 429 kts 243°
2026-05-09 07:20 -41.99593 172.17322 39612 ft 427 kts 243°
2026-05-09 07:20 -42.02060 172.10074 39630 ft 427 kts 243°
2026-05-09 07:21 -42.04534 172.02789 39623 ft 429 kts 243°
2026-05-09 07:21 -42.06999 171.95514 39636 ft 427 kts 243°
2026-05-09 07:22 -42.09452 171.88248 39629 ft 426 kts 243°
2026-05-09 07:22 -42.11888 171.81017 39637 ft 426 kts 243°
2026-05-09 07:23 -42.14441 171.73418 39646 ft 424 kts 243°
2026-05-09 07:23 -42.16952 171.65921 39644 ft 426 kts 243°
2026-05-09 07:24 -42.19286 171.58931 39640 ft 424 kts 243°
2026-05-09 07:24 -42.21736 171.51575 39642 ft 424 kts 243°
2026-05-09 07:25 -42.24326 171.43791 39642 ft 422 kts 243°
2026-05-09 07:25 -42.26729 171.36549 39659 ft 422 kts 243°
2026-05-09 07:26 -42.29127 171.29303 39658 ft 423 kts 244°
2026-05-09 07:26 -42.31506 171.22096 39653 ft 422 kts 243°
2026-05-09 07:27 -42.33876 171.14880 39655 ft 421 kts 244°
2026-05-09 07:27 -42.36241 171.07665 39647 ft 421 kts 243°
2026-05-09 07:28 -42.38599 171.00455 39639 ft 420 kts 243°
2026-05-09 07:28 -42.40937 170.93283 39641 ft 419 kts 243°
2026-05-09 07:29 -42.43287 170.86060 39641 ft 419 kts 243°
2026-05-09 07:29 -42.45622 170.78870 39637 ft 417 kts 243°
2026-05-09 07:30 -42.47937 170.71712 39634 ft 417 kts 244°
2026-05-09 07:30 -42.50251 170.64539 39643 ft 417 kts 243°
2026-05-09 07:31 -42.52564 170.57349 39652 ft 416 kts 243°
2026-05-09 07:31 -42.54880 170.50133 39647 ft 417 kts 243°
2026-05-09 07:32 -42.57178 170.42955 39648 ft 416 kts 243°
2026-05-09 07:32 -42.59476 170.35753 39654 ft 416 kts 243°
2026-05-09 07:33 -42.62894 170.25014 39652 ft 415 kts 244°
2026-05-09 07:34 -42.65175 170.17830 39653 ft 416 kts 244°
2026-05-09 07:34 -42.67462 170.10602 39653 ft 415 kts 244°
2026-05-09 07:35 -42.69731 170.03403 39648 ft 413 kts 244°
2026-05-09 07:35 -42.71987 169.96239 39648 ft 413 kts 244°
2026-05-09 07:36 -42.74229 169.89088 39649 ft 412 kts 244°
2026-05-09 07:36 -42.76463 169.81943 39642 ft 412 kts 244°
2026-05-09 07:37 -42.78686 169.74818 39641 ft 411 kts 244°
2026-05-09 07:37 -42.80907 169.67679 39638 ft 411 kts 244°
2026-05-09 07:38 -42.83128 169.60532 39639 ft 412 kts 244°
2026-05-09 07:38 -42.85340 169.53391 39645 ft 411 kts 244°
2026-05-09 07:39 -42.87546 169.46242 39647 ft 408 kts 244°
2026-05-09 07:39 -42.89736 169.39127 39649 ft 407 kts 244°
2026-05-09 07:40 -42.91916 169.32016 39641 ft 408 kts 245°
2026-05-09 07:40 -42.94097 169.24895 39636 ft 407 kts 244°
2026-05-09 07:41 -42.96263 169.17799 39634 ft 406 kts 244°
2026-05-09 07:41 -42.98415 169.10730 39649 ft 404 kts 244°
2026-05-09 07:42 -43.00570 169.03636 39639 ft 405 kts 244°
2026-05-09 07:42 -43.02726 168.96518 39638 ft 405 kts 244°
2026-05-09 07:43 -43.04865 168.89442 39640 ft 403 kts 244°
2026-05-09 07:43 -43.07011 168.82317 39638 ft 403 kts 244°
2026-05-09 07:44 -43.09132 168.75240 39640 ft 402 kts 244°
2026-05-09 07:44 -43.11239 168.68207 39646 ft 401 kts 244°
2026-05-09 07:45 -43.13353 168.61096 39651 ft 403 kts 245°
2026-05-09 07:45 -43.15020 168.53773 39655 ft 404 kts 253°
2026-05-09 07:46 -43.15883 168.46066 39657 ft 408 kts 258°
2026-05-09 07:46 -43.16455 168.38394 39650 ft 408 kts 259°
2026-05-09 07:47 -43.17028 168.30524 39653 ft 409 kts 259°
2026-05-09 07:47 -43.17599 168.22833 39651 ft 407 kts 259°
2026-05-09 07:48 -43.18182 168.15067 39652 ft 410 kts 259°
2026-05-09 07:48 -43.18768 168.07248 39650 ft 408 kts 259°
2026-05-09 07:49 -43.19341 167.99501 39653 ft 408 kts 259°
2026-05-09 07:49 -43.19909 167.91768 39646 ft 407 kts 259°
2026-05-09 07:50 -43.20472 167.84016 39654 ft 407 kts 259°
2026-05-09 07:50 -43.21023 167.76331 39657 ft 407 kts 259°
2026-05-09 07:51 -43.21579 167.68507 39665 ft 408 kts 259°
2026-05-09 07:51 -43.22118 167.60817 39649 ft 407 kts 259°
2026-05-09 07:52 -43.22653 167.53154 39658 ft 407 kts 259°
2026-05-09 07:52 -43.23188 167.45407 39653 ft 407 kts 259°
2026-05-09 07:53 -43.23712 167.37738 39646 ft 407 kts 259°
2026-05-09 07:53 -43.24234 167.30029 39666 ft 409 kts 260°
2026-05-09 07:54 -43.24750 167.22264 39665 ft 409 kts 260°
2026-05-09 07:54 -43.25264 167.14510 39664 ft 409 kts 259°
2026-05-09 07:55 -43.25768 167.06781 39666 ft 410 kts 260°
2026-05-09 07:55 -43.26273 166.99014 39675 ft 409 kts 259°
2026-05-09 07:56 -43.26774 166.91286 39677 ft 409 kts 260°
2026-05-09 07:56 -43.27263 166.83560 39670 ft 407 kts 259°
2026-05-09 07:57 -43.27741 166.75880 39691 ft 407 kts 259°
2026-05-09 07:57 -43.28220 166.68106 39682 ft 407 kts 260°
2026-05-09 07:58 -43.28691 166.60362 39677 ft 406 kts 259°
2026-05-09 07:58 -43.29149 166.52789 39678 ft 407 kts 259°
2026-05-09 07:59 -43.29479 166.47278 39679 ft 407 kts 259°
2026-05-09 07:59 -43.29940 166.39557 39686 ft 407 kts 259°
2026-05-09 08:00 -43.30391 166.31869 39687 ft 408 kts 260°
2026-05-09 08:00 -43.30836 166.24138 39685 ft 406 kts 260°
2026-05-09 08:01 -43.31272 166.16428 39690 ft 405 kts 260°
2026-05-09 08:01 -43.31713 166.08649 39690 ft 403 kts 260°
2026-05-09 08:02 -43.32141 166.00977 39693 ft 404 kts 260°
2026-05-09 08:02 -43.32567 165.93262 39692 ft 404 kts 260°
2026-05-09 08:03 -43.32983 165.85611 39695 ft 403 kts 260°
2026-05-09 08:03 -43.33393 165.77949 39697 ft 404 kts 260°
2026-05-09 08:04 -43.33801 165.70262 39708 ft 406 kts 260°
2026-05-09 08:04 -43.34208 165.62564 39706 ft 405 kts 260°
2026-05-09 08:05 -43.34604 165.54892 39709 ft 404 kts 260°
2026-05-09 08:05 -43.34997 165.47151 39703 ft 404 kts 260°
2026-05-09 08:06 -43.35383 165.39514 39705 ft 402 kts 260°
2026-05-09 08:06 -43.35765 165.31860 39707 ft 404 kts 260°
2026-05-09 08:07 -43.36142 165.24168 39705 ft 404 kts 261°
2026-05-09 08:07 -43.36510 165.16530 39710 ft 403 kts 260°
2026-05-09 08:08 -43.36874 165.08862 39710 ft 403 kts 260°
2026-05-09 08:08 -43.37235 165.01181 39711 ft 402 kts 261°
2026-05-09 08:09 -43.37590 164.93523 39713 ft 404 kts 261°
2026-05-09 08:09 -43.37942 164.85828 39718 ft 404 kts 260°
2026-05-09 08:10 -43.38285 164.78186 39729 ft 403 kts 260°
2026-05-09 08:10 -43.38627 164.70523 39727 ft 403 kts 260°
2026-05-09 08:11 -43.38963 164.62837 39733 ft 402 kts 260°
2026-05-09 08:11 -43.39291 164.55206 39738 ft 403 kts 260°
2026-05-09 08:12 -43.39777 164.43677 39738 ft 403 kts 260°
2026-05-09 08:12 -43.40096 164.36047 39739 ft 403 kts 260°
2026-05-09 08:13 -43.40408 164.28348 39741 ft 404 kts 261°
2026-05-09 08:13 -43.40710 164.20740 39735 ft 402 kts 261°
2026-05-09 08:14 -43.41009 164.13078 39733 ft 402 kts 261°
2026-05-09 08:14 -43.41304 164.05440 39730 ft 402 kts 261°
2026-05-09 08:15 -43.41595 163.97778 39737 ft 403 kts 261°
2026-05-09 08:15 -43.41878 163.90106 39733 ft 402 kts 261°
2026-05-09 08:16 -43.42157 163.82509 39743 ft 402 kts 261°
2026-05-09 08:16 -43.42434 163.74834 39750 ft 404 kts 261°
2026-05-09 08:17 -43.42702 163.67165 39749 ft 403 kts 261°
2026-05-09 08:17 -43.42968 163.59503 39749 ft 401 kts 261°
2026-05-09 08:18 -43.43230 163.51848 39751 ft 403 kts 261°
2026-05-09 08:18 -43.43489 163.44167 39754 ft 404 kts 261°
2026-05-09 08:19 -43.43739 163.36479 39756 ft 405 kts 261°
2026-05-09 08:19 -43.43985 163.28749 39756 ft 402 kts 261°
2026-05-09 08:20 -43.44223 163.21081 39755 ft 404 kts 261°
2026-05-09 08:20 -43.44458 163.13380 39760 ft 404 kts 261°
2026-05-09 08:21 -43.44686 163.05692 39765 ft 404 kts 262°
2026-05-09 08:21 -43.44912 162.98001 39765 ft 405 kts 261°
2026-05-09 08:22 -43.45132 162.90321 39778 ft 403 kts 262°
2026-05-09 08:22 -43.45347 162.82655 39768 ft 404 kts 261°
2026-05-09 08:23 -43.45555 162.74971 39773 ft 403 kts 261°
2026-05-09 08:23 -43.45758 162.67235 39773 ft 404 kts 262°
2026-05-09 08:24 -43.45958 162.59547 39784 ft 405 kts 261°
2026-05-09 08:24 -43.46151 162.51842 39780 ft 403 kts 262°
2026-05-09 08:25 -43.46342 162.44151 39782 ft 406 kts 262°
2026-05-09 08:25 -43.46527 162.36432 39779 ft 405 kts 262°
2026-05-09 08:26 -43.46705 162.28694 39787 ft 405 kts 262°
2026-05-09 08:26 -43.46878 162.20991 39790 ft 405 kts 262°
2026-05-09 08:27 -43.47048 162.13266 39789 ft 405 kts 262°
2026-05-09 08:27 -43.47209 162.05536 39790 ft 404 kts 262°
2026-05-09 08:28 -43.47365 161.97852 39794 ft 404 kts 262°
2026-05-09 08:28 -43.47520 161.90102 39787 ft 406 kts 262°
2026-05-09 08:29 -43.47667 161.82397 39783 ft 406 kts 262°
2026-05-09 08:29 -43.47810 161.74648 39789 ft 406 kts 262°
2026-05-09 08:30 -43.47946 161.66908 39792 ft 407 kts 262°
2026-05-09 08:30 -43.48076 161.59170 39794 ft 406 kts 262°
2026-05-09 08:31 -43.48203 161.51430 39796 ft 408 kts 262°
2026-05-09 08:31 -43.48326 161.43636 39794 ft 407 kts 262°
2026-05-09 08:32 -43.48444 161.35873 39806 ft 407 kts 262°
2026-05-09 08:33 -43.48612 161.24223 39812 ft 409 kts 263°
2026-05-09 08:33 -43.48713 161.16419 39815 ft 408 kts 263°
2026-05-09 08:34 -43.48811 161.08630 39816 ft 409 kts 263°
2026-05-09 08:34 -43.48904 161.00850 39822 ft 408 kts 263°
2026-05-09 08:35 -43.48992 160.93071 39829 ft 409 kts 263°
2026-05-09 08:35 -43.49075 160.85251 39823 ft 409 kts 263°
2026-05-09 08:36 -43.49152 160.77446 39829 ft 409 kts 263°
2026-05-09 08:36 -43.49225 160.69644 39829 ft 410 kts 263°
2026-05-09 08:37 -43.49293 160.61813 39830 ft 409 kts 263°
2026-05-09 08:37 -43.49356 160.54033 39833 ft 411 kts 263°
2026-05-09 08:38 -43.49414 160.46191 39839 ft 410 kts 263°
2026-05-09 08:38 -43.49455 160.39655 39837 ft 412 kts 263°
2026-05-09 08:39 -43.49509 160.30505 39845 ft 411 kts 264°
2026-05-09 08:39 -43.49548 160.22653 39847 ft 412 kts 264°
2026-05-09 08:40 -43.49583 160.14815 39847 ft 411 kts 264°
2026-05-09 08:40 -43.49614 160.06935 39850 ft 411 kts 264°
2026-05-09 08:41 -43.49635 160.00389 39856 ft 413 kts 264°
2026-05-09 08:41 -43.49656 159.92535 39853 ft 412 kts 264°
2026-05-09 08:42 -43.49674 159.83362 39859 ft 412 kts 264°
2026-05-09 08:42 -43.49679 159.75472 39854 ft 413 kts 264°
2026-05-09 08:43 -43.49681 159.67581 39863 ft 414 kts 264°
2026-05-09 08:43 -43.49680 159.59679 39868 ft 415 kts 264°
2026-05-09 08:44 -43.49674 159.51778 39862 ft 414 kts 264°
2026-05-09 08:44 -43.49661 159.43895 39867 ft 416 kts 264°
2026-05-09 08:45 -43.49645 159.37282 39868 ft 415 kts 264°
2026-05-09 08:45 -43.49616 159.28050 39872 ft 415 kts 265°
2026-05-09 08:46 -43.49588 159.20134 39862 ft 415 kts 265°
2026-05-09 08:46 -43.49551 159.12238 39860 ft 415 kts 265°
2026-05-09 08:47 -43.49511 159.04317 39868 ft 417 kts 265°
2026-05-09 08:47 -43.49464 158.96347 39869 ft 416 kts 265°
2026-05-09 08:48 -43.49412 158.88422 39875 ft 418 kts 265°
2026-05-09 08:48 -43.49356 158.80425 39881 ft 418 kts 265°
2026-05-09 08:49 -43.49295 158.72501 39888 ft 418 kts 265°
2026-05-09 08:49 -43.49226 158.64502 39889 ft 418 kts 266°
2026-05-09 08:50 -43.49151 158.56531 39893 ft 419 kts 266°
2026-05-09 08:50 -43.49069 158.48500 39900 ft 419 kts 266°
2026-05-09 08:51 -43.48983 158.40536 39897 ft 419 kts 266°
2026-05-09 08:51 -43.48893 158.32552 39907 ft 419 kts 266°
2026-05-09 08:52 -43.48799 158.24535 39911 ft 422 kts 266°
2026-05-09 08:52 -43.48695 158.16507 39917 ft 422 kts 267°
2026-05-09 08:53 -43.48584 158.08406 39910 ft 423 kts 267°
2026-05-09 08:53 -43.48468 158.00360 39914 ft 423 kts 267°
2026-05-09 08:54 -43.48348 157.92335 39918 ft 422 kts 267°
2026-05-09 08:54 -43.48222 157.84279 39913 ft 422 kts 267°
2026-05-09 08:55 -43.48091 157.76184 39929 ft 423 kts 267°
2026-05-09 08:55 -43.47953 157.68141 39923 ft 422 kts 267°
2026-05-09 08:56 -43.47809 157.60083 39925 ft 423 kts 268°
2026-05-09 08:56 -43.47659 157.52033 39932 ft 423 kts 268°
2026-05-09 08:57 -43.47504 157.43927 39925 ft 425 kts 268°
2026-05-09 08:57 -43.47341 157.35800 39935 ft 425 kts 268°
2026-05-09 08:58 -43.47173 157.27695 39934 ft 426 kts 269°
2026-05-09 08:58 -43.46999 157.19539 39939 ft 427 kts 268°
2026-05-09 08:59 -43.46817 157.11400 39940 ft 428 kts 268°
2026-05-09 08:59 -43.46631 157.03255 39942 ft 428 kts 268°
2026-05-09 09:00 -43.46440 156.95108 39948 ft 427 kts 269°
2026-05-09 09:00 -43.46241 156.86952 39955 ft 427 kts 269°
2026-05-09 09:01 -43.46029 156.78459 39953 ft 427 kts 269°
2026-05-09 09:01 -43.45810 156.69977 39958 ft 427 kts 269°
2026-05-09 09:02 -43.45592 156.61723 39953 ft 428 kts 269°
2026-05-09 09:02 -43.45369 156.53531 39961 ft 427 kts 268°
2026-05-09 09:03 -43.45142 156.45384 39981 ft 427 kts 268°
2026-05-09 09:03 -43.44910 156.37267 39979 ft 426 kts 268°
2026-05-09 09:04 -43.44671 156.29164 39990 ft 428 kts 269°
2026-05-09 09:04 -43.44427 156.21002 39994 ft 427 kts 269°
2026-05-09 09:05 -43.44177 156.12859 39992 ft 427 kts 269°
2026-05-09 09:05 -43.43921 156.04697 39997 ft 427 kts 269°
2026-05-09 09:06 -43.43660 155.96596 39995 ft 426 kts 269°
2026-05-09 09:06 -43.43391 155.88434 39999 ft 427 kts 269°
2026-05-09 09:07 -43.43118 155.80266 40003 ft 427 kts 269°
2026-05-09 09:07 -43.42839 155.72150 40002 ft 427 kts 269°
2026-05-09 09:08 -43.42551 155.63985 40011 ft 426 kts 269°
2026-05-09 09:08 -43.42261 155.55879 40010 ft 427 kts 269°
2026-05-09 09:09 -43.41965 155.47766 40011 ft 429 kts 269°
2026-05-09 09:09 -43.41663 155.39598 40013 ft 429 kts 269°
2026-05-09 09:10 -43.41355 155.31457 40031 ft 429 kts 270°
2026-05-09 09:10 -43.41038 155.23274 40009 ft 428 kts 270°
2026-05-09 09:11 -43.40718 155.15134 40021 ft 429 kts 270°
2026-05-09 09:11 -43.40392 155.06992 40015 ft 428 kts 269°
2026-05-09 09:12 -43.40062 154.98886 40028 ft 426 kts 269°
2026-05-09 09:12 -43.39725 154.90752 40022 ft 427 kts 269°
2026-05-09 09:13 -43.39384 154.82665 40024 ft 428 kts 269°
2026-05-09 09:13 -43.39036 154.74501 40043 ft 429 kts 269°
2026-05-09 09:14 -43.38682 154.66353 40041 ft 429 kts 269°
2026-05-09 09:14 -43.38321 154.58235 40046 ft 428 kts 269°
2026-05-09 09:15 -43.37953 154.50061 40033 ft 429 kts 269°
2026-05-09 09:15 -43.37580 154.41943 40029 ft 427 kts 269°
2026-05-09 09:16 -43.37204 154.33820 40049 ft 429 kts 270°
2026-05-09 09:16 -43.36628 154.21631 40045 ft 429 kts 270°
2026-05-09 09:17 -43.36235 154.13492 40055 ft 429 kts 269°
2026-05-09 09:17 -43.35836 154.05368 40047 ft 429 kts 269°
2026-05-09 09:18 -43.35427 153.97153 40047 ft 431 kts 269°
2026-05-09 09:18 -43.35016 153.89009 40066 ft 429 kts 269°
2026-05-09 09:19 -43.34601 153.80859 40048 ft 428 kts 270°
2026-05-09 09:19 -43.34179 153.72690 40067 ft 430 kts 269°
2026-05-09 09:20 -43.33752 153.64569 40058 ft 428 kts 269°
2026-05-09 09:20 -43.33317 153.56421 40063 ft 428 kts 270°
2026-05-09 09:21 -43.32879 153.48280 40065 ft 429 kts 269°
2026-05-09 09:21 -43.32436 153.40170 40081 ft 430 kts 269°
2026-05-09 09:22 -43.31984 153.31992 40075 ft 431 kts 270°
2026-05-09 09:22 -43.31524 153.23866 40092 ft 429 kts 270°
2026-05-09 09:23 -43.31063 153.15750 40092 ft 429 kts 270°
2026-05-09 09:23 -43.30595 153.07611 40089 ft 429 kts 270°
2026-05-09 09:24 -43.30123 152.99478 40107 ft 430 kts 270°
2026-05-09 09:24 -43.29641 152.91301 40091 ft 429 kts 270°
2026-05-09 09:25 -43.29155 152.83118 40108 ft 430 kts 270°
2026-05-09 09:25 -43.28665 152.74971 40093 ft 430 kts 270°
2026-05-09 09:26 -43.28164 152.66841 40100 ft 429 kts 270°
2026-05-09 09:26 -43.27659 152.58699 40111 ft 430 kts 270°
2026-05-09 09:27 -43.27150 152.50574 40104 ft 430 kts 270°
2026-05-09 09:27 -43.26636 152.42454 40120 ft 430 kts 270°
2026-05-09 09:28 -43.26114 152.34286 40120 ft 431 kts 270°
2026-05-09 09:28 -43.25585 152.26119 40118 ft 430 kts 270°
2026-05-09 09:29 -43.25054 152.17995 40118 ft 430 kts 270°
2026-05-09 09:29 -43.24514 152.09857 40117 ft 430 kts 270°
2026-05-09 09:30 -43.23972 152.01746 40115 ft 430 kts 271°
2026-05-09 09:30 -43.23423 151.93646 40127 ft 429 kts 271°
2026-05-09 09:31 -43.22867 151.85519 40125 ft 430 kts 271°
2026-05-09 09:32 -43.22022 151.73315 40131 ft 430 kts 270°
2026-05-09 09:32 -43.21450 151.65155 40133 ft 431 kts 270°
2026-05-09 09:33 -43.20875 151.57048 40129 ft 429 kts 270°
2026-05-09 09:33 -43.20293 151.48929 40138 ft 430 kts 270°
2026-05-09 09:34 -43.19707 151.40837 40143 ft 431 kts 270°
2026-05-09 09:34 -43.19114 151.32712 40145 ft 430 kts 271°
2026-05-09 09:36 -43.16687 151.00296 40161 ft 429 kts 271°
2026-05-09 09:37 -43.15772 150.92224 40165 ft 433 kts 277°
2026-05-09 09:37 -43.14068 150.84290 40161 ft 437 kts 282°
2026-05-09 09:38 -43.12120 150.76477 40170 ft 437 kts 283°
2026-05-09 09:38 -43.10146 150.68590 40183 ft 439 kts 283°
2026-05-09 09:39 -43.08200 150.60730 40187 ft 438 kts 282°
2026-05-09 09:39 -43.06266 150.52885 40179 ft 437 kts 282°
2026-05-09 09:40 -43.04341 150.45067 40187 ft 437 kts 282°
2026-05-09 09:40 -43.02416 150.37262 40251 ft 434 kts 282°
2026-05-09 09:41 -43.00478 150.29433 40238 ft 434 kts 283°
2026-05-09 09:41 -42.98546 150.21642 40194 ft 435 kts 283°
2026-05-09 09:42 -42.96595 150.13794 40195 ft 437 kts 283°
2026-05-09 09:42 -42.94651 150.06006 40200 ft 437 kts 283°
2026-05-09 09:43 -42.92685 149.98158 40194 ft 439 kts 283°
2026-05-09 09:43 -42.90709 149.90300 40194 ft 440 kts 283°
2026-05-09 09:44 -42.88715 149.82408 40198 ft 439 kts 283°
2026-05-09 09:44 -42.86729 149.74567 40201 ft 439 kts 283°
2026-05-09 09:45 -42.84747 149.66763 40205 ft 437 kts 283°
2026-05-09 09:45 -42.82762 149.58971 40204 ft 438 kts 283°
2026-05-09 09:46 -42.80777 149.51201 40214 ft 438 kts 283°
2026-05-09 09:46 -42.78779 149.43416 40211 ft 437 kts 283°
2026-05-09 09:47 -42.76772 149.35606 40215 ft 438 kts 283°
2026-05-09 09:47 -42.74747 149.27760 40221 ft 438 kts 283°
2026-05-09 09:48 -42.72719 149.19936 40230 ft 439 kts 284°
2026-05-09 09:48 -42.70705 149.12187 40239 ft 439 kts 283°
2026-05-09 09:49 -42.68672 149.04405 39531 ft 438 kts 283°
2026-05-09 09:49 -42.67656 149.00510 38281 ft 446 kts 283°
2026-05-09 09:49 -42.66618 148.96532 37580 ft 442 kts 284°
2026-05-09 09:49 -42.65609 148.92693 37073 ft 435 kts 283°
2026-05-09 09:50 -42.64586 148.88817 36456 ft 430 kts 283°
2026-05-09 09:50 -42.63590 148.85042 35800 ft 426 kts 283°
2026-05-09 09:50 -42.62601 148.81294 35062 ft 424 kts 283°
2026-05-09 09:50 -42.61602 148.77508 34295 ft 423 kts 284°
2026-05-09 09:51 -42.60618 148.73781 33549 ft 423 kts 284°
2026-05-09 09:51 -42.59635 148.70058 32743 ft 424 kts 284°
2026-05-09 09:51 -42.58635 148.66278 31920 ft 425 kts 284°
2026-05-09 09:51 -42.57643 148.62543 31099 ft 426 kts 284°
2026-05-09 09:52 -42.56636 148.58754 30225 ft 427 kts 284°
2026-05-09 09:52 -42.55632 148.54982 29295 ft 429 kts 284°
2026-05-09 09:52 -42.54621 148.51183 28341 ft 431 kts 284°
2026-05-09 09:52 -42.53613 148.47407 27353 ft 434 kts 285°
2026-05-09 09:53 -42.52587 148.43568 26303 ft 434 kts 285°
2026-05-09 09:53 -42.51572 148.39786 25191 ft 434 kts 285°
2026-05-09 09:53 -42.50542 148.35947 23980 ft 440 kts 286°
2026-05-09 09:53 -42.49484 148.32007 22705 ft 446 kts 287°
2026-05-09 09:54 -42.48428 148.28082 21609 ft 446 kts 287°
2026-05-09 09:54 -42.47371 148.24167 20706 ft 442 kts 287°
2026-05-09 09:54 -42.46327 148.20316 19829 ft 437 kts 287°
2026-05-09 09:54 -42.45573 148.16380 18889 ft 428 kts 273°
2026-05-09 09:55 -42.45762 148.12492 18050 ft 414 kts 253°
2026-05-09 09:55 -42.46928 148.09091 17580 ft 393 kts 234°
2026-05-09 09:55 -42.48656 148.06328 17204 ft 376 kts 223°
2026-05-09 09:55 -42.50521 148.03943 16867 ft 361 kts 222°
2026-05-09 09:56 -42.52294 148.01668 16585 ft 347 kts 222°
2026-05-09 09:56 -42.53997 147.99437 16339 ft 333 kts 223°
2026-05-09 09:56 -42.55623 147.97282 16155 ft 319 kts 223°
2026-05-09 09:56 -42.57158 147.95245 16002 ft 305 kts 223°
2026-05-09 09:57 -42.58640 147.93280 15872 ft 291 kts 223°
2026-05-09 09:57 -42.60078 147.91379 15663 ft 281 kts 223°
2026-05-09 09:57 -42.61450 147.89566 15187 ft 277 kts 223°
2026-05-09 09:57 -42.62775 147.87813 14949 ft 257 kts 223°
2026-05-09 09:58 -42.64021 147.86163 14629 ft 242 kts 223°
2026-05-09 09:58 -42.65183 147.84625 14355 ft 229 kts 223°
2026-05-09 09:58 -42.66291 147.83157 14122 ft 216 kts 222°
2026-05-09 09:58 -42.67331 147.81778 13907 ft 205 kts 223°
2026-05-09 09:59 -42.68329 147.80455 13728 ft 192 kts 222°
2026-05-09 09:59 -42.69261 147.79221 13491 ft 188 kts 223°
2026-05-09 09:59 -42.70193 147.77985 13191 ft 188 kts 223°
2026-05-09 09:59 -42.71134 147.76738 12909 ft 187 kts 223°
2026-05-09 10:00 -42.72060 147.75507 12613 ft 188 kts 223°
2026-05-09 10:00 -42.72999 147.74281 12337 ft 186 kts 219°
2026-05-09 10:00 -42.74102 147.73393 12025 ft 187 kts 195°
2026-05-09 10:00 -42.75387 147.73379 11749 ft 189 kts 171°
2026-05-09 10:01 -42.76657 147.73843 11477 ft 189 kts 168°
2026-05-09 10:01 -42.77939 147.74315 11196 ft 188 kts 169°
2026-05-09 10:01 -42.79187 147.74753 10939 ft 187 kts 169°
2026-05-09 10:01 -42.80444 147.75197 10657 ft 187 kts 169°
2026-05-09 10:02 -42.81699 147.75650 10405 ft 185 kts 168°
2026-05-09 10:02 -42.82937 147.76096 10130 ft 185 kts 169°
2026-05-09 10:02 -42.84176 147.76540 9864 ft 184 kts 169°
2026-05-09 10:02 -42.85404 147.76965 9670 ft 178 kts 172°
2026-05-09 10:03 -42.86630 147.76988 9356 ft 176 kts 199°
2026-05-09 10:03 -42.87719 147.76271 9087 ft 175 kts 209°
2026-05-09 10:03 -42.88777 147.75485 8821 ft 174 kts 207°
2026-05-09 10:03 -42.89854 147.74753 8584 ft 172 kts 206°
2026-05-09 10:04 -42.90914 147.74045 8423 ft 169 kts 206°
2026-05-09 10:04 -42.91964 147.73282 8304 ft 171 kts 214°
2026-05-09 10:04 -42.92726 147.72028 8146 ft 180 kts 246°
2026-05-09 10:04 -42.92874 147.70287 7744 ft 195 kts 265°
2026-05-09 10:05 -42.92829 147.68417 7083 ft 204 kts 265°
2026-05-09 10:05 -42.92809 147.66469 6391 ft 207 kts 264°
2026-05-09 10:05 -42.92764 147.64523 5712 ft 210 kts 271°
2026-05-09 10:05 -42.92251 147.62663 5100 ft 217 kts 301°
2026-05-09 10:06 -42.91187 147.61226 4550 ft 216 kts 313°
2026-05-09 10:06 -42.90076 147.59900 3987 ft 208 kts 311°
2026-05-09 10:06 -42.89062 147.58597 3388 ft 197 kts 308°
2026-05-09 10:06 -42.88122 147.57324 2780 ft 186 kts 308°
2026-05-09 10:07 -42.87224 147.56146 2071 ft 175 kts 323°
2026-05-09 10:07 -42.86372 147.55145 1582 ft 155 kts 296°
2026-05-09 10:07 -42.85721 147.53940 568 ft 170 kts 299°
2026-05-09 10:07 -42.84963 147.52849 272 ft 142 kts 317°
2026-05-09 10:08 -42.84262 147.52028 44 ft 122 kts 316°
2026-05-09 10:08 -42.83726 147.51325 21 ft 85 kts 315°
2026-05-09 10:08 -42.83404 147.50888 20 ft 48 kts 316°
2026-05-09 10:08 -42.83167 147.50563 18 ft 36 kts 316°
2026-05-09 10:09 -42.83024 147.50397 20 ft 24 kts 328°
2026-05-09 10:09 -42.82993 147.50337 21 ft 7 kts 137°
2026-05-09 10:09 -42.83172 147.50572 18 ft 32 kts 136°
2026-05-09 10:09 -42.83295 147.50676 18 ft 17 kts 197°
2026-05-09 10:10 -42.83375 147.50569 18 ft 14 kts 222°
2026-05-09 10:10 -42.83448 147.50583 20 ft 10 kts 135°
2026-05-09 10:10 -42.83510 147.50667 23 ft 13 kts 135°
2026-05-09 10:10 -42.83579 147.50682 25 ft 10 kts 213°
2026-05-09 10:11 -42.83630 147.50618 26 ft 10 kts 225°
2026-05-09 10:11 -42.83652 147.50589 26 ft 0 kts 225°